GAOFEN-12 02
Last updated on Mon Jun 22 2026 00:02:52 GMT+0000 (Coordinated Universal Time)
1 48079U 21026A 26172.55203968 .00000238 00000+0 38176-4 0 9996
2 48079 97.9923 170.7148 0004005 204.2706 155.8318 14.80298823282409
Next 0 passes for location: London (51.5072 / 0.1276)
No passes found over London.